GFSFLT1_850_spd_057.txt.gz
Wind_Speed
3 6 8 10 13 17 24 32 39 41 44 40 38 34 39 38 34 31 24 24 24 21 21 16 14 16 17 16 15 16 16 15
6 6 10 13 15 14 16 26 33 38 40 41 40 38 40 36 35 30 30 27 28 25 17 17 18 17 16 17 17 21 21 19
11 10 14 17 16 20 20 22 29 35 41 39 36 38 38 40 39 36 30 30 26 21 18 19 19 19 18 20 21 24 25 23
17 15 16 19 22 22 22 23 27 35 38 41 39 39 40 41 39 42 38 31 27 23 20 22 24 25 24 24 24 26 29 28
20 18 17 19 22 21 21 24 28 32 35 41 45 42 43 41 45 44 40 37 32 31 26 24 25 25 27 29 28 29 30 31
26 24 19 18 19 20 21 25 29 29 32 36 38 45 47 45 42 41 44 40 38 35 32 30 29 28 29 29 29 30 31 34
29 25 23 22 21 23 26 30 33 35 38 40 38 43 45 47 45 42 45 41 39 39 38 35 32 31 33 32 28 27 30 28
35 33 32 29 29 28 30 32 34 36 39 41 39 42 48 49 42 39 39 40 39 40 37 37 33 34 33 26 33 30 27 31
40 40 37 35 34 34 34 35 35 38 43 43 42 42 44 44 40 40 41 40 36 34 32 34 34 34 32 32 28 32 30 29
41 43 42 39 39 39 39 39 38 38 43 45 46 45 44 44 42 42 42 40 39 33 30 32 35 36 36 32 28 28 28 25
40 41 45 44 42 41 42 42 42 41 41 45 47 46 44 44 43 42 41 40 38 37 36 35 36 40 42 33 30 28 25 25
42 42 43 47 46 43 44 46 47 45 44 45 47 47 43 45 48 44 42 41 40 36 31 35 32 36 42 36 32 27 25 26
39 42 43 43 46 49 50 48 50 50 51 46 47 52 54 51 50 47 35 38 42 42 36 42 30 35 39 37 30 27 30 26
32 33 37 40 43 45 47 50 54 53 52 51 53 53 53 55 53 52 42 40 40 46 36 36 36 34 32 33 27 27 25 26
29 31 32 33 35 38 43 46 48 52 56 54 53 56 56 49 47 47 43 44 49 41 39 39 34 32 32 27 27 27 27 27
30 32 33 31 33 35 36 38 41 45 49 51 55 56 55 47 41 38 37 36 37 39 38 38 38 31 29 27 27 28 28 26
33 35 35 34 32 31 31 30 33 40 44 47 48 51 49 51 40 39 37 38 41 37 34 34 30 30 29 28 28 28 25 22
33 35 38 37 37 35 32 29 29 33 40 44 47 45 44 44 42 38 38 40 36 34 33 28 29 29 30 29 26 22 21 22
32 32 34 42 40 34 32 31 30 30 35 37 41 43 43 44 42 41 40 33 29 31 31 28 28 28 25 24 23 22 22 22

GFSFLT1_850_spd_060.txt.gz
Wind_Speed
3 6 10 11 14 24 29 24 28 31 28 34 33 33 34 36 38 41 39 33 25 23 21 18 16 16 15 11 11 11 9 9
6 6 9 13 13 16 19 25 30 31 33 38 36 37 37 36 38 38 34 28 29 24 22 20 16 16 11 9 13 14 13 14
13 11 14 14 13 13 15 22 30 38 37 36 38 34 36 36 35 34 32 27 21 23 21 18 19 18 16 17 15 16 16 19
19 17 16 15 19 19 18 19 27 39 39 42 39 36 38 41 34 36 38 33 26 23 23 23 20 17 16 17 18 18 19 20
19 17 15 14 17 20 21 22 27 34 43 42 44 41 41 43 43 38 35 33 27 28 28 20 19 19 19 21 22 23 23 24
24 21 15 14 14 20 22 24 25 32 39 40 47 46 41 36 41 40 40 42 35 30 28 27 25 23 22 23 23 26 27 29
24 21 18 17 15 17 22 26 30 32 35 37 43 49 46 43 43 41 45 40 45 38 37 34 33 32 29 28 30 30 32 29
26 27 25 22 22 20 21 25 31 34 36 38 40 45 46 45 47 48 47 44 47 48 42 40 40 37 33 33 34 34 30 32
28 28 27 25 25 25 25 26 28 33 35 37 38 40 41 45 47 50 50 50 47 46 46 42 39 37 38 37 35 35 34 31
29 29 30 29 28 29 29 29 28 31 33 35 39 40 41 42 44 44 46 48 46 42 40 39 37 33 31 32 37 36 33 29
26 29 29 31 32 30 30 31 30 30 31 35 37 39 41 41 41 46 45 44 42 39 38 37 36 39 38 35 38 37 36 32
24 28 29 29 32 35 35 35 34 35 35 34 35 38 38 39 41 42 44 44 43 39 35 35 36 32 31 31 31 36 38 35
21 24 28 31 33 35 38 38 38 38 37 38 40 41 42 41 44 45 47 46 45 42 41 42 37 38 36 33 35 36 36 31
20 23 25 28 32 33 36 39 41 41 41 42 44 43 42 50 52 53 51 50 46 38 44 44 39 38 39 34 33 32 29 31
19 23 26 27 28 28 31 32 35 43 47 46 47 46 47 48 51 47 47 48 49 39 45 47 43 37 38 33 31 29 27 28
20 23 25 26 28 29 30 31 30 34 39 46 50 52 48 49 52 53 49 45 41 40 49 54 51 44 40 34 32 29 27 27
24 28 29 30 30 30 30 30 33 32 32 34 36 42 47 54 55 53 50 47 44 42 45 46 39 37 36 32 32 27 26 27
27 29 30 33 36 34 33 32 34 33 31 32 34 36 37 39 44 50 51 48 47 43 40 37 31 30 29 27 26 28 29 31
35 35 34 34 38 39 37 38 34 33 33 32 32 33 35 35 35 38 40 40 42 38 33 32 32 27 27 27 31 33 28 24

GFSFLT1_850_spd_063.txt.gz
Wind_Speed
8 7 9 14 18 22 18 19 29 32 37 31 41 39 38 37 41 46 36 38 34 32 29 26 26 21 20 19 15 13 11 9
10 8 8 12 14 20 21 26 29 28 39 34 41 44 42 37 40 38 36 38 34 29 28 26 23 20 17 18 14 13 12 12
14 11 10 15 19 20 24 26 23 28 37 33 39 43 42 36 39 40 38 37 34 31 29 25 24 18 19 16 17 14 15 14
17 14 15 19 20 22 24 24 26 29 31 39 40 34 32 37 39 37 45 41 38 35 29 26 23 19 18 18 17 15 16 15
18 18 17 20 22 20 20 22 25 30 34 35 43 41 43 41 41 44 44 40 37 34 28 26 21 22 20 18 21 20 20 20
25 20 15 14 20 23 23 22 24 31 36 38 42 46 42 42 40 38 39 38 36 37 35 31 26 31 23 21 20 21 21 23
25 21 18 16 17 22 24 26 27 30 38 41 43 47 44 43 42 45 41 40 42 38 35 34 27 28 26 24 23 23 24 26
28 29 27 24 23 24 28 28 31 32 36 40 44 45 45 43 44 48 45 43 41 44 37 40 34 32 32 30 30 30 30 29
31 31 30 27 25 26 25 26 31 34 38 41 44 45 48 47 47 53 48 47 48 47 44 45 42 39 38 36 34 35 35 32
31 31 31 30 28 27 26 26 27 31 34 37 41 43 46 50 50 46 48 47 48 47 48 43 43 44 43 41 38 37 35 34
24 31 31 31 30 27 26 26 26 25 30 34 36 39 42 46 53 54 52 52 52 50 50 50 47 45 42 39 39 38 39 37
19 24 29 30 31 31 31 31 30 31 30 31 34 37 39 41 44 45 47 47 49 51 51 50 46 42 39 38 41 39 32 36
14 18 22 27 31 34 36 36 35 33 32 32 33 35 39 42 42 41 43 43 43 44 45 45 44 41 40 38 37 34 37 33
8 13 18 22 27 30 33 36 37 38 36 36 38 39 40 40 42 44 45 44 43 43 43 44 44 41 42 43 39 42 40 37
9 11 17 20 23 24 26 29 33 38 41 42 42 43 43 43 41 43 47 47 44 43 44 44 46 45 47 42 43 38 38 38
16 18 17 22 23 23 21 23 25 29 36 41 44 45 45 43 43 45 47 45 45 43 43 44 47 48 50 47 38 33 33 33
28 21 21 21 24 26 25 28 28 29 30 31 33 37 39 43 45 46 47 48 46 45 45 45 45 43 41 42 41 40 39 33
26 24 24 24 23 26 30 31 34 33 31 31 32 31 32 32 33 37 43 46 46 46 44 43 45 42 37 36 28 28 34 30
23 19 22 28 31 29 33 34 35 36 36 33 33 31 30 29 29 29 30 34 36 36 36 35 36 35 33 29 30 30 27 31

GFSFLT1_850_spd_069.txt.gz
Wind_Speed
12 10 9 12 13 13 17 16 10 7 14 21 23 24 32 39 42 40 36 35 37 34 30 29 28 22 22 20 19 17 15 14
13 12 11 11 16 17 18 20 13 13 17 25 27 32 36 37 42 39 38 30 37 35 28 26 25 25 20 21 20 19 16 15
15 13 12 12 16 17 20 21 22 19 21 26 25 31 37 39 42 42 30 28 31 32 30 32 29 29 23 24 22 20 17 21
18 17 15 14 20 22 24 22 19 21 24 25 27 28 35 40 46 40 34 30 33 38 32 40 35 32 25 24 23 21 21 20
21 20 19 18 22 25 24 26 21 24 28 27 31 31 34 44 50 44 35 36 40 41 40 33 32 30 22 23 25 24 21 19
23 22 20 19 22 27 26 28 28 26 28 28 37 35 30 35 48 45 37 36 36 40 41 36 37 31 31 30 28 25 21 19
22 21 20 19 20 23 25 27 30 31 33 28 31 36 32 39 40 41 46 44 42 36 37 37 37 35 32 29 26 23 23 20
24 25 24 23 24 23 24 27 28 35 35 32 30 36 38 46 41 38 45 50 49 45 37 40 41 39 33 31 32 33 28 25
26 27 26 24 24 25 24 25 26 28 36 38 33 35 34 39 41 34 45 56 55 53 42 42 44 41 38 36 35 34 36 36
26 27 27 25 25 25 25 24 24 26 28 38 38 35 37 40 40 44 39 48 49 51 49 46 46 49 45 40 37 36 41 39
25 28 27 26 25 25 25 24 24 25 25 29 37 39 39 34 35 42 45 43 48 50 49 54 57 57 51 50 48 44 40 39
22 25 27 26 25 26 26 26 26 27 27 27 31 36 37 39 37 39 37 41 49 50 50 50 49 50 53 49 47 44 41 40
16 21 25 27 28 27 29 28 29 29 28 29 30 32 35 39 40 40 39 39 40 44 43 44 48 47 47 48 46 45 45 43
9 16 22 26 28 28 29 30 31 29 30 31 32 34 35 40 43 42 40 41 40 43 43 48 47 47 47 47 47 48 47 46
4 9 15 20 25 28 29 30 30 31 32 33 35 39 41 42 41 40 44 44 44 47 47 48 47 48 48 47 47 47 48 47
9 10 12 16 20 25 28 29 30 31 33 34 39 41 39 35 39 41 43 44 47 45 46 48 51 50 50 50 49 49 50 50
11 15 13 17 18 21 24 28 33 31 36 42 37 37 38 40 41 42 42 44 46 48 48 47 49 51 53 54 52 47 46 46
15 14 13 11 12 14 21 25 25 33 38 36 37 39 40 42 41 41 43 45 44 48 49 48 50 50 51 51 50 48 48 44
15 14 13 12 12 10 14 18 23 28 32 34 36 38 41 40 39 42 42 42 44 45 45 45 43 44 43 44 43 43 46 50

GFSFLT1_850_spd_072.txt.gz
Wind_Speed
15 14 13 14 15 16 12 9 8 9 15 22 27 30 31 30 38 32 38 43 31 35 31 30 32 31 27 21 24 21 20 19
16 17 16 15 13 15 13 17 11 13 15 16 22 21 27 40 37 40 38 36 35 34 36 32 30 26 26 25 24 21 19 20
18 17 18 15 17 19 15 20 14 13 16 20 21 21 30 36 42 36 39 37 39 37 36 34 35 34 31 26 24 24 20 23
23 20 19 17 16 21 21 24 19 14 18 19 22 26 32 42 39 43 41 38 39 41 37 37 33 31 31 29 27 28 29 27
25 23 21 19 16 21 20 21 20 20 22 25 26 30 35 39 48 42 40 40 37 29 34 35 35 34 30 30 29 30 28 25
26 25 23 18 19 24 25 24 23 21 28 24 27 28 31 39 49 46 46 39 39 35 34 37 39 38 34 31 28 30 28 26
25 25 23 21 20 25 27 24 26 23 30 28 28 28 33 40 43 53 45 41 39 40 40 39 40 37 35 34 31 31 25 20
26 27 27 25 24 23 26 28 30 28 29 33 31 34 33 36 43 55 52 44 43 41 43 42 39 36 35 36 33 28 25 25
28 28 29 28 26 22 25 26 28 31 33 33 35 31 36 33 36 46 56 53 48 45 44 42 42 39 38 39 37 31 30 27
26 28 29 28 30 27 24 24 27 29 36 35 35 29 32 40 39 41 49 51 54 50 47 44 44 43 41 42 41 41 39 37
25 27 29 28 29 29 28 25 25 24 26 36 40 36 37 39 37 42 38 46 52 55 53 50 47 41 44 45 45 45 44 42
26 26 28 26 26 28 29 30 27 28 25 25 34 43 39 36 35 37 46 40 39 44 54 56 54 51 46 47 50 51 51 47
19 23 26 28 27 28 29 29 29 30 30 25 24 31 41 40 41 44 43 42 48 46 45 48 54 56 55 54 56 55 55 57
13 17 22 26 26 27 28 29 29 30 30 30 28 27 33 41 44 44 44 40 40 40 42 49 52 54 56 55 55 58 57 51
4 12 16 20 24 27 27 29 29 29 33 34 35 35 34 35 39 41 44 43 42 42 43 42 47 51 54 54 55 56 55 53
13 11 1 15 19 23 27 29 31 32 33 35 38 38 37 36 36 40 41 43 46 46 44 46 45 46 48 47 47 49 49 50
19 18 19 18 7 21 25 29 30 32 35 38 35 36 37 41 41 41 42 45 46 47 49 51 49 51 54 54 54 52 51 50
18 20 17 19 19 16 14 21 27 31 35 36 37 37 38 40 41 42 46 48 47 50 52 51 53 54 55 55 54 52 51 48
16 19 19 15 14 11 12 7 9 27 30 34 35 35 38 37 37 42 44 44 46 48 50 50 49 52 50 49 50 50 51 53

GFSFLT1_850_spd_075.txt.gz
Wind_Speed
25 23 22 17 12 13 12 11 10 10 13 19 30 28 32 45 45 40 41 35 32 33 43 40 35 33 33 28 28 25 23 22
27 26 22 18 13 16 16 16 14 11 13 18 23 27 42 39 41 43 37 38 35 42 43 42 37 36 34 33 29 28 26 24
32 29 25 19 14 18 19 20 16 17 20 16 24 28 34 35 34 39 39 40 41 43 44 41 39 36 33 34 33 31 27 25
36 32 26 19 16 21 21 26 19 18 18 23 21 21 31 35 36 42 40 43 43 36 41 40 35 35 34 35 34 34 32 31
38 33 27 20 16 21 23 26 23 19 18 21 26 25 28 33 37 38 43 48 42 36 38 35 35 34 37 38 34 34 33 29
40 34 26 18 16 21 26 25 27 21 23 23 25 26 25 30 39 41 47 44 42 40 40 40 38 36 35 36 36 35 35 32
38 31 24 20 18 23 24 27 27 26 27 26 25 25 30 33 44 42 45 40 41 40 40 39 38 36 35 34 35 35 32 28
38 34 30 24 23 25 30 29 27 28 28 29 26 25 27 33 37 44 47 45 39 38 38 37 40 39 39 35 37 33 30 32
40 38 32 26 25 25 29 31 31 33 30 32 28 27 27 31 36 42 49 48 47 43 42 39 38 39 36 39 38 36 36 37
40 38 33 26 25 26 25 30 31 33 32 32 32 30 30 30 33 39 45 49 52 47 45 44 43 39 37 38 38 37 35 35
40 38 33 27 23 23 22 23 27 29 31 32 34 35 35 33 31 33 39 44 54 49 47 43 42 45 41 40 41 40 40 38
38 37 34 28 24 24 23 23 23 24 26 32 35 35 37 33 39 38 38 38 50 55 53 49 48 46 45 45 46 45 45 43
37 35 35 32 27 25 23 22 23 24 22 23 28 38 37 39 39 42 40 40 41 45 50 53 54 53 50 50 48 49 50 49
30 29 32 31 29 27 26 23 23 24 24 24 25 26 36 45 44 43 42 41 44 44 46 49 48 53 56 60 58 57 55 54
14 17 27 30 29 27 26 25 23 22 29 29 29 30 28 34 41 44 43 43 44 47 49 48 48 49 48 50 58 62 64 64
31 28 27 2 23 28 27 25 25 24 25 31 33 32 30 29 31 37 42 45 46 47 47 48 48 48 48 50 54 56 58 59
28 27 23 24 19 8 4 22 30 27 28 28 30 34 34 34 32 33 35 40 45 46 48 48 48 48 49 49 50 52 55 56
21 22 22 20 18 17 14 8 3 28 33 31 31 31 34 36 36 36 37 38 39 43 46 47 50 51 50 49 48 48 50 52
19 20 20 22 17 12 10 7 4 3 17 26 28 32 37 37 37 39 41 41 41 42 44 46 48 52 52 51 49 46 50 54

GFSFLT1_850_spd_078.txt.gz
Wind_Speed
34 30 25 20 18 14 12 14 13 14 12 17 22 24 31 36 41 49 45 44 42 39 39 40 40 42 40 41 40 32 31 27
34 31 25 22 19 15 11 15 15 14 20 16 22 25 35 47 45 47 46 43 40 36 39 42 43 43 39 37 33 28 29 27
37 33 28 26 21 14 12 17 15 13 17 21 29 33 34 33 42 46 43 45 43 32 41 43 42 44 39 35 35 34 30 28
39 37 34 28 23 16 13 19 17 15 17 23 22 22 35 44 50 49 48 45 39 36 43 46 42 43 40 33 37 35 33 31
44 42 37 31 24 17 17 23 21 19 19 18 20 27 33 37 43 43 44 41 39 38 43 46 41 38 36 34 37 35 33 35
48 47 39 30 23 21 22 26 24 21 19 21 22 23 26 27 31 39 40 39 36 36 43 43 42 37 38 38 39 35 36 36
48 43 37 29 24 22 25 30 29 24 22 19 23 22 24 29 32 34 38 41 38 39 38 38 41 41 33 36 31 36 38 35
46 43 39 32 28 26 27 31 34 30 25 23 22 23 23 23 30 33 35 39 45 43 39 35 38 35 40 38 37 42 42 39
50 44 41 35 29 28 27 30 33 35 30 28 26 23 23 24 25 31 34 39 46 45 44 39 37 35 32 34 38 40 40 41
48 44 40 35 30 28 25 28 31 32 31 30 29 28 28 28 30 29 35 39 43 47 45 41 41 40 38 38 38 37 37 39
44 43 39 34 29 26 24 23 29 32 31 31 30 31 29 29 28 34 35 42 44 48 47 45 43 42 41 42 42 41 41 40
43 40 38 32 28 26 24 23 25 28 32 32 31 32 31 29 30 32 35 37 42 46 48 47 46 45 42 43 44 45 44 45
40 38 36 33 30 27 24 22 23 24 24 28 33 32 33 33 33 30 32 37 39 45 46 52 50 49 49 49 50 46 46 48
26 30 33 33 29 26 24 22 21 21 22 24 27 30 36 36 35 37 36 36 38 39 44 49 56 56 54 52 51 51 53 53
20 13 10 16 20 23 25 25 22 21 22 24 25 27 30 31 34 38 39 37 39 41 43 44 47 56 58 59 58 57 56 57
33 25 19 14 9 7 13 18 22 24 24 24 25 24 25 26 28 31 36 41 42 43 44 45 47 48 50 51 51 52 53 55
29 28 28 25 17 10 5 6 15 23 28 28 27 27 28 29 30 30 31 33 36 42 44 45 46 49 50 49 49 50 52 54
31 29 25 20 19 15 13 8 2 11 21 26 23 23 27 31 30 31 34 35 35 36 39 41 46 48 49 50 50 49 49 49
29 26 23 21 18 16 12 9 11 10 6 15 20 23 22 25 30 34 36 36 37 36 37 37 39 42 43 45 46 45 48 49

GFSFLT1_850_spd_081.txt.gz
Wind_Speed
39 42 37 30 24 22 18 16 17 18 20 21 23 26 26 33 36 27 39 46 49 46 44 43 44 45 47 49 46 36 31 28
34 42 36 30 26 24 18 14 15 17 17 18 23 24 29 36 39 36 35 42 44 43 42 43 43 44 46 48 47 40 29 27
33 40 37 33 29 23 18 14 16 17 17 16 22 25 30 33 37 39 42 42 42 40 41 42 43 44 45 47 49 44 33 28
37 40 39 36 31 24 18 14 19 18 17 17 15 22 24 35 35 40 44 44 42 39 37 41 44 46 47 47 48 43 37 32
43 43 42 39 32 24 18 15 20 18 16 20 17 22 30 30 43 42 47 46 42 41 38 41 42 44 43 44 44 40 35 37
44 46 44 39 32 26 19 18 22 21 19 19 22 23 23 28 29 42 47 45 42 41 37 39 42 44 43 40 39 38 36 35
40 43 43 38 31 26 21 22 24 22 19 19 20 23 22 24 31 39 49 45 43 43 36 36 42 41 44 40 35 38 38 37
39 46 46 38 34 28 24 25 28 24 21 18 18 20 22 23 25 33 34 40 42 43 36 38 39 42 39 38 38 37 41 38
42 50 48 41 35 30 27 27 28 27 25 20 18 18 18 20 26 30 31 40 41 34 35 33 38 43 40 36 40 41 43 38
42 47 43 42 36 32 28 28 26 27 27 23 20 19 20 20 20 22 29 32 33 35 37 36 39 43 44 40 40 42 36 34
36 42 44 42 36 29 26 26 24 25 27 23 23 21 20 19 18 20 21 25 29 33 38 40 38 36 36 35 37 33 40 39
37 41 41 40 34 28 26 25 24 24 25 28 25 24 23 21 21 22 22 22 26 30 33 41 40 38 35 34 35 35 37 40
32 38 39 37 33 29 26 24 23 22 22 25 26 25 24 25 24 24 23 26 27 31 33 38 41 42 42 42 42 42 45 46
18 24 27 30 30 27 25 24 22 20 20 21 23 26 26 27 25 23 24 24 27 30 32 36 38 44 45 46 46 46 48 48
22 17 15 16 18 20 20 19 18 18 18 20 22 24 24 25 27 28 28 28 28 30 32 34 36 40 45 48 49 49 50 51
30 29 25 20 14 11 9 10 13 15 17 18 19 20 22 23 24 26 29 30 32 33 33 36 38 40 43 46 49 53 55 56
25 26 25 23 19 15 12 12 14 13 13 15 17 19 20 22 24 26 29 30 30 30 35 38 39 42 44 44 45 46 48 52
25 25 24 21 18 15 12 9 7 14 16 15 17 17 18 20 23 26 30 32 32 34 34 35 37 38 41 42 43 44 45 48
25 25 24 21 17 16 15 13 11 12 14 14 14 13 14 18 21 22 22 24 30 36 37 38 37 38 40 40 40 42 44 45

GFSFLT1_850_spd_084.txt.gz
Wind_Speed
28 29 37 42 37 31 28 27 23 19 19 20 20 21 23 30 30 32 36 41 39 46 43 45 42 43 48 44 39 36 32 28
28 27 32 37 35 33 31 28 23 20 22 23 22 23 24 26 32 31 35 44 44 46 46 43 42 45 52 48 43 38 32 31
28 25 28 35 38 35 32 27 21 19 21 21 24 25 25 25 29 35 36 34 42 46 45 44 42 46 51 49 48 42 34 34
29 26 30 35 39 37 32 25 19 16 18 19 17 19 20 25 27 38 27 34 43 43 42 42 42 45 50 50 52 46 40 37
24 29 32 38 40 36 29 23 17 16 18 17 16 17 23 20 26 41 33 31 35 37 38 38 41 43 46 50 51 47 44 40
26 29 32 37 39 36 29 22 17 18 20 16 14 15 19 18 26 35 36 35 38 35 33 33 35 39 44 48 50 47 42 41
22 21 28 32 35 33 29 23 18 19 19 16 18 16 16 19 26 31 33 39 38 36 35 36 37 38 42 42 45 49 42 38
19 24 30 35 35 36 30 25 21 21 20 17 18 17 17 17 22 34 35 40 42 41 37 37 33 38 34 35 38 47 44 39
17 28 32 38 36 36 31 26 22 22 22 18 18 17 18 17 16 22 33 38 38 40 36 34 32 38 41 37 39 40 38 37
24 31 34 36 38 36 33 26 22 22 23 20 17 16 16 15 18 18 24 29 36 37 39 39 35 32 41 40 41 43 40 38
27 31 34 33 36 35 30 25 21 21 21 20 17 14 13 13 13 17 21 22 28 35 36 34 32 29 31 41 37 39 43 43
22 24 30 32 34 34 29 24 20 20 20 20 16 15 15 13 11 11 12 16 22 25 26 29 33 30 30 35 41 41 38 39
14 20 25 30 32 29 26 22 18 17 16 16 17 14 14 14 14 12 11 11 14 17 21 22 27 32 31 32 35 38 38 37
15 17 21 24 26 25 21 18 15 14 13 15 18 16 14 13 14 15 14 13 13 15 17 20 21 25 33 34 35 36 38 37
16 15 16 19 21 19 17 15 13 11 10 11 12 14 14 15 14 15 15 14 15 15 16 19 22 26 31 34 37 39 40 41
23 24 23 19 16 13 11 10 11 11 11 10 10 10 11 13 13 13 15 17 19 20 19 20 21 23 25 27 30 34 38 41
22 22 22 21 18 16 13 12 12 11 11 10 11 11 12 13 14 16 17 18 20 20 20 22 25 28 29 29 32 34 36 39
21 20 18 18 18 15 12 10 13 16 15 14 13 11 11 12 13 15 17 18 19 22 24 25 26 26 29 31 30 31 35 38
20 21 19 18 18 20 15 15 15 16 16 14 12 12 14 15 15 16 15 16 19 20 21 22 24 30 32 32 33 34 36 37

GFSFLT1_850_spd_087.txt.gz
Wind_Speed
27 24 23 26 29 30 33 35 33 28 26 23 22 22 23 27 28 29 30 33 33 34 35 39 45 41 42 43 41 36 32 32
29 26 24 25 27 28 33 36 34 28 26 22 23 24 25 26 27 30 29 33 36 36 36 33 35 39 41 45 42 37 35 33
30 28 27 25 27 29 35 37 32 28 24 21 24 24 25 26 26 31 33 33 39 39 41 43 41 43 41 47 44 39 35 35
32 30 28 27 28 31 36 38 30 26 22 21 25 26 25 26 28 30 38 34 37 46 43 44 42 42 41 47 47 43 41 36
31 31 32 29 29 32 36 34 28 25 20 22 25 23 25 25 31 23 36 37 39 46 44 46 44 42 42 46 47 44 42 39
31 31 27 26 29 33 35 32 28 23 19 18 17 19 19 22 19 25 30 29 29 47 43 35 38 40 40 43 48 46 44 41
23 22 18 22 28 32 34 30 26 22 17 19 18 14 14 13 18 24 37 27 30 34 33 30 34 36 35 38 45 47 44 39
13 16 22 26 29 32 34 31 27 20 19 20 18 15 14 12 16 26 27 29 32 33 28 29 29 30 32 34 39 42 44 40
12 15 20 23 26 32 36 33 26 20 20 20 19 16 14 13 12 21 25 32 35 34 30 27 30 34 36 35 28 35 40 34
14 20 21 23 26 31 35 32 26 20 21 21 19 17 15 14 12 12 28 24 34 40 32 34 33 33 31 44 39 34 38 40
13 17 22 23 23 28 32 29 24 21 22 21 19 17 15 14 13 13 18 26 29 37 34 37 37 34 30 38 45 41 41 45
6 10 16 19 23 28 31 28 23 20 20 20 18 16 14 11 12 13 12 17 22 30 32 35 36 33 33 32 40 47 41 45
6 7 15 19 24 28 30 27 22 19 19 18 16 13 14 13 12 12 12 13 15 18 21 26 27 31 31 29 29 46 45 41
5 3 13 18 22 26 28 24 20 17 16 17 19 16 14 14 14 14 13 12 13 16 18 20 21 19 22 26 28 28 34 39
17 6 11 16 19 21 22 21 18 15 15 16 17 16 15 14 14 13 13 12 12 12 14 15 17 17 18 20 27 27 28 31
22 21 17 17 17 17 15 18 17 15 13 14 14 12 13 13 12 13 14 13 12 11 11 12 13 15 17 19 23 27 30 33
17 16 16 18 19 17 16 17 14 13 11 11 11 13 14 14 13 12 12 12 13 13 14 13 13 14 16 18 20 23 26 29
16 16 15 14 17 17 16 15 16 16 15 13 12 11 12 13 13 13 12 12 13 13 14 15 14 19 21 21 22 24 25 25
15 16 16 15 16 18 19 16 14 15 14 12 11 12 12 11 12 13 13 14 15 15 17 18 22 25 25 24 24 24 25 25

GFSFLT1_850_spd_093.txt.gz
Wind_Speed
22 22 26 28 29 26 25 28 35 32 34 36 36 34 32 32 32 31 29 32 31 31 32 37 37 30 29 33 34 32 28 25
25 25 25 25 25 24 25 27 31 31 37 38 39 38 34 32 34 32 31 32 32 33 32 35 26 28 31 33 36 33 30 26
24 27 28 28 27 25 25 26 28 33 35 36 26 28 27 32 32 31 31 32 31 31 32 38 37 38 35 40 42 37 32 29
23 25 28 29 27 26 26 25 28 34 29 25 23 24 28 27 27 25 27 29 30 30 33 36 38 38 38 41 40 40 36 30
21 24 26 30 30 25 25 25 28 32 27 25 28 32 28 26 24 25 26 26 26 29 31 37 40 37 37 36 43 44 37 37
15 18 23 28 30 25 24 24 28 23 28 28 28 22 17 15 19 22 22 25 27 31 33 37 37 33 38 37 51 45 39 37
12 14 20 25 26 23 22 24 26 25 28 28 25 21 18 17 18 18 20 24 26 28 33 35 31 35 39 40 50 46 40 35
9 9 13 20 21 20 22 22 26 26 27 26 22 18 17 18 15 20 23 25 25 29 38 41 35 33 34 41 47 42 39 38
11 8 8 13 16 20 19 23 26 26 25 22 19 17 16 14 17 16 17 20 22 27 31 37 40 36 42 42 41 41 39 36
18 13 5 10 16 18 25 23 26 25 22 20 18 17 14 13 15 15 14 13 17 20 36 32 36 42 40 42 40 38 38 34
22 17 2 7 12 12 27 23 24 22 20 18 18 18 14 12 12 12 9 12 17 19 31 38 45 47 46 50 41 35 37 34
22 18 9 5 9 11 21 24 22 21 18 18 18 16 15 12 12 10 9 11 16 21 19 25 36 40 40 45 40 34 31 28
20 17 13 5 10 8 17 20 25 22 18 18 17 15 14 15 13 11 9 9 15 23 18 19 25 26 25 26 25 24 25 26
20 18 11 4 5 9 15 17 21 19 19 19 16 15 13 13 13 12 12 12 19 25 23 21 22 22 25 25 26 30 26 26
20 17 14 7 3 11 15 22 18 16 17 18 15 15 13 13 13 12 13 13 15 17 27 28 27 28 27 26 31 30 27 28
19 19 15 11 5 7 11 18 18 17 18 15 15 14 15 14 15 15 13 11 12 14 15 14 21 28 28 28 29 33 29 28
17 17 15 12 6 6 9 16 18 13 17 15 15 13 15 15 15 15 17 16 17 15 14 14 15 21 21 21 22 22 24 25
16 16 16 12 7 5 9 16 20 20 21 20 20 20 19 18 16 15 15 15 15 19 18 17 21 23 21 20 18 17 20 21
17 15 12 11 7 3 8 14 19 21 22 22 22 21 19 18 16 18 17 19 19 19 20 20 20 20 20 20 19 23 22 21

GFSFLT1_850_spd_096.txt.gz
Wind_Speed
25 30 32 33 35 36 34 34 32 33 30 31 32 30 31 29 28 27 27 28 27 30 30 28 29 32 28 28 20 24 36 36
28 26 24 27 28 31 35 35 34 34 36 35 37 36 34 32 32 29 27 26 24 28 30 29 30 30 34 30 24 30 33 33
32 31 30 27 26 28 27 30 32 31 36 35 38 36 34 32 34 30 30 29 27 29 31 30 28 28 42 31 28 35 36 34
18 18 23 31 32 30 29 26 24 27 36 30 32 29 27 30 35 33 30 30 30 30 30 32 32 34 27 28 29 30 42 39
12 15 19 24 30 35 32 26 25 29 37 31 30 32 34 35 32 29 29 27 27 28 30 31 31 33 32 34 30 30 42 41
11 14 19 24 24 32 34 30 28 33 37 30 28 33 34 27 27 28 25 25 25 26 31 30 32 35 34 33 39 36 46 43
11 13 13 19 23 25 33 32 29 35 35 29 29 36 30 19 19 20 22 22 25 27 28 28 31 34 36 34 34 38 49 45
25 14 14 14 21 28 33 32 27 30 30 29 27 29 21 20 20 18 20 22 23 27 28 31 33 39 37 36 37 37 49 47
26 20 22 13 17 25 26 24 26 26 23 29 30 25 23 24 24 20 25 24 24 25 25 32 31 37 32 35 31 41 49 47
21 22 27 11 11 20 23 20 22 26 26 26 27 22 22 23 22 24 23 19 19 22 25 26 36 36 37 31 34 44 46 45
21 23 28 17 10 8 12 17 20 26 27 25 24 22 20 19 22 19 18 18 18 19 21 26 36 37 31 33 33 41 48 40
21 22 21 18 2 3 10 21 9 25 26 23 21 18 20 18 16 15 14 14 13 13 14 20 33 33 41 38 38 48 45 38
22 22 19 16 13 8 6 10 11 17 22 21 16 19 17 13 15 10 10 9 7 9 11 16 30 36 36 34 42 38 40 39
26 24 21 18 12 7 5 13 8 19 19 17 16 16 17 14 13 10 8 8 9 14 12 9 18 25 39 42 46 43 39 33
25 28 24 19 14 6 1 5 10 15 19 14 16 15 14 12 11 10 9 9 12 16 15 11 14 18 21 24 30 39 29 30
25 28 27 22 17 9 2 5 9 10 13 15 15 14 11 10 11 9 9 9 12 17 18 17 15 16 17 21 21 22 23 28
25 25 26 25 21 16 8 1 10 12 17 17 16 15 13 14 15 12 10 11 10 11 12 16 16 22 24 24 22 24 28 30
25 25 26 25 22 18 11 5 8 17 20 19 20 19 20 18 19 20 20 16 16 17 19 21 21 19 17 20 20 19 20 20
22 24 25 24 19 15 12 6 5 14 20 21 18 16 18 20 19 18 20 19 19 17 15 17 18 18 17 16 18 18 18 21

GFSFLT1_850_spd_099.txt.gz
Wind_Speed
39 44 41 42 41 41 46 41 39 45 40 34 32 33 32 40 37 33 30 30 29 28 28 28 28 27 27 26 27 26 24 21
23 22 26 48 42 43 46 41 40 47 44 37 35 34 32 30 34 38 36 30 30 29 28 29 31 30 27 28 26 25 22 30
29 31 29 28 32 35 44 44 41 45 43 38 36 34 32 34 31 29 32 35 33 30 30 30 31 31 28 33 27 27 24 34
31 35 37 29 27 28 31 30 41 48 43 39 34 29 27 33 35 34 31 30 30 31 30 30 32 30 29 30 30 31 33 37
21 13 6 7 18 36 35 29 35 42 39 35 31 31 34 38 40 39 37 32 32 32 30 30 32 30 32 27 41 31 31 39
14 10 8 14 13 14 34 35 35 36 34 30 29 27 28 32 36 35 33 32 32 32 31 31 32 34 33 32 33 28 32 39
14 13 8 11 16 19 24 39 37 35 31 29 26 28 28 33 30 27 29 28 28 28 29 28 32 35 38 39 40 36 37 40
19 17 20 14 16 20 25 37 35 31 27 29 28 28 28 30 28 28 27 24 24 25 29 30 31 36 36 32 39 41 41 42
21 22 25 18 11 9 21 36 36 31 29 29 27 25 24 25 26 24 23 19 18 21 25 31 30 34 38 37 40 39 36 40
28 24 27 17 15 13 23 27 25 24 25 25 21 27 24 26 25 24 19 17 22 23 25 25 32 35 38 40 39 46 40 42
30 27 28 20 14 8 11 16 16 17 22 20 21 26 25 26 24 21 20 24 25 25 24 26 28 32 33 38 43 43 37 44
34 28 25 24 16 15 8 4 13 16 23 24 26 28 28 24 21 19 21 22 21 21 22 27 28 31 35 33 39 33 35 48
33 30 27 24 22 16 13 6 0 13 22 23 26 26 22 18 16 18 18 17 16 17 19 20 23 28 30 40 41 34 35 42
35 33 30 27 24 18 11 8 9 8 14 18 21 17 18 16 14 12 11 11 12 13 11 11 15 23 31 31 34 34 35 41
32 34 31 27 25 21 14 9 8 9 12 13 14 14 15 15 12 10 9 9 9 12 10 6 9 14 27 37 38 34 40 42
31 32 33 30 26 22 17 12 2 7 9 11 11 12 12 10 9 8 9 9 9 12 11 8 9 9 14 32 32 29 31 39
26 29 31 31 29 24 20 14 6 5 10 11 12 13 12 10 10 8 8 8 9 11 14 14 14 11 12 12 14 24 30 30
26 27 28 28 26 24 23 18 9 2 10 14 15 15 10 18 15 15 15 15 14 14 15 18 18 16 17 17 16 17 21 24
26 26 25 26 24 22 21 17 11 2 7 11 15 15 16 19 19 16 13 11 14 19 19 20 20 18 13 16 21 21 24 27

GFSFLT1_850_spd_102.txt.gz
Wind_Speed
32 36 37 44 40 39 42 41 38 37 38 38 41 38 36 34 33 31 30 29 29 29 28 27 27 28 28 32 33 34 34 32
37 30 26 21 31 44 41 44 43 42 42 40 40 40 41 38 36 35 32 32 32 32 30 29 29 30 30 31 29 32 33 33
35 30 27 26 24 26 45 48 44 47 46 42 44 45 45 42 39 36 35 35 34 32 32 31 30 32 31 29 31 30 32 31
39 38 35 30 30 29 29 35 48 48 46 45 47 45 40 41 36 37 40 36 34 35 35 34 33 32 32 31 31 32 33 34
32 31 32 18 10 18 32 32 41 44 48 47 50 46 44 42 38 36 38 38 36 37 34 34 34 33 33 33 34 33 36 38
8 7 6 5 7 7 12 26 39 37 42 48 51 47 40 38 37 36 37 35 33 36 36 37 36 35 35 35 32 35 36 40
17 13 4 2 7 5 7 14 28 40 38 46 47 40 38 35 33 34 35 34 36 36 36 36 38 36 37 36 34 39 36 43
29 22 19 15 7 7 10 14 27 40 44 42 43 39 34 31 29 28 30 34 36 38 37 37 37 38 37 36 38 39 35 39
34 30 25 22 19 14 4 18 26 38 36 39 40 34 31 27 24 22 24 23 24 28 31 32 34 36 34 35 39 41 41 49
35 30 30 24 23 21 19 7 20 33 33 38 36 29 27 23 21 18 19 20 22 21 21 27 30 32 34 34 39 42 45 44
29 30 29 25 24 21 14 14 8 27 31 28 24 23 21 21 23 22 21 21 22 22 22 22 25 30 32 37 41 39 44 46
32 30 29 26 23 19 19 14 7 10 19 20 20 22 20 22 24 20 19 20 21 20 23 26 25 28 31 34 39 44 41 46
36 34 30 28 25 22 19 14 7 3 10 18 20 23 21 22 20 17 17 16 21 25 25 23 25 28 32 35 35 47 44 45
37 37 34 30 27 23 19 14 10 5 9 15 20 19 18 17 16 15 15 20 19 17 18 19 22 24 29 36 37 42 41 42
34 38 37 32 28 26 20 17 14 4 11 11 11 12 13 14 13 13 13 11 9 12 11 8 10 14 17 22 26 35 39 36
35 37 38 34 30 26 22 17 15 13 9 9 8 7 9 10 9 10 7 7 8 8 10 6 6 6 10 17 31 29 24 29
33 36 36 36 33 29 25 21 18 16 5 7 10 11 11 12 11 8 9 10 9 8 11 11 7 6 5 6 18 31 31 32
29 32 34 33 31 27 26 23 18 16 10 6 8 14 16 17 15 13 12 11 10 12 15 15 14 13 11 7 6 10 25 29
30 30 31 32 30 27 24 22 20 19 13 9 6 6 12 16 19 20 15 13 15 16 16 16 16 17 16 14 16 15 14 14

GFSFLT1_850_spd_105.txt.gz
Wind_Speed
46 43 34 33 28 33 40 43 43 49 49 42 37 34 31 31 34 34 34 33 34 33 33 31 29 29 29 30 29 29 31 31
39 35 37 35 33 31 34 42 42 46 51 46 44 42 35 34 33 34 35 34 33 34 33 32 31 31 29 29 29 28 32 33
37 36 35 32 31 29 29 32 36 43 50 46 44 42 38 35 37 37 34 36 35 35 35 35 32 31 30 28 30 28 31 34
35 35 35 36 35 36 31 27 30 39 47 48 46 42 41 42 41 38 35 37 36 36 35 33 34 33 32 31 31 31 30 32
14 17 25 27 30 33 30 29 29 33 42 48 49 46 43 45 43 40 37 36 36 38 38 37 36 34 35 34 32 31 31 31
23 13 7 9 16 19 20 26 28 32 36 45 47 47 46 46 47 43 41 40 39 37 40 39 37 37 37 35 32 33 33 34
26 18 11 3 3 11 16 19 24 30 31 37 44 43 47 48 47 46 42 43 39 37 41 39 38 37 37 36 34 34 35 36
28 28 21 18 10 5 11 13 17 26 31 33 39 42 45 46 45 43 40 41 41 40 38 39 38 37 37 35 36 37 38 38
27 27 23 22 20 12 6 12 16 18 27 32 37 38 33 36 38 35 31 35 34 41 36 36 35 36 37 36 37 38 39 37
29 25 24 25 24 24 14 4 12 20 22 28 34 34 34 33 30 28 26 24 23 27 33 34 34 34 33 32 34 37 38 40
29 29 26 25 25 21 20 12 3 17 21 27 31 26 24 25 25 26 24 19 19 23 22 24 25 28 30 29 34 36 38 39
29 25 29 28 24 22 21 17 10 9 18 19 22 19 22 24 24 22 21 20 22 22 22 22 23 21 24 29 32 33 38 40
30 36 32 29 27 24 23 21 14 6 12 18 17 18 20 21 21 20 19 19 18 21 21 22 22 24 25 28 32 39 41 39
39 38 36 33 31 27 25 23 18 12 3 13 15 19 20 20 20 17 17 18 18 20 21 21 19 21 25 29 33 36 39 41
35 38 38 34 32 29 25 24 21 11 8 12 11 11 13 15 14 13 13 14 15 14 13 15 15 14 17 24 27 33 38 40
32 34 37 37 34 31 27 24 21 15 11 12 11 14 10 8 8 7 9 10 8 7 8 9 9 9 10 13 20 24 26 26
32 35 37 39 36 34 30 27 23 18 15 14 10 14 14 12 9 8 8 9 8 9 10 12 11 10 10 11 12 13 17 26
32 35 36 36 33 33 32 29 23 22 21 21 15 9 12 13 11 11 12 10 12 12 12 15 15 15 13 13 12 10 10 20
30 30 32 34 34 35 32 30 28 27 25 24 21 14 5 6 9 12 14 14 13 14 16 17 17 18 18 18 16 13 10 8

GFSFLT1_850_spd_108.txt.gz
Wind_Speed
36 35 30 30 32 33 30 30 36 41 42 45 47 43 38 36 35 35 34 35 34 33 34 35 34 33 32 32 31 29 29 26
38 35 32 28 28 28 31 31 31 37 46 51 48 52 46 40 38 36 36 34 34 36 35 36 35 35 33 30 31 30 31 29
38 32 27 26 27 29 29 29 29 33 46 52 51 48 51 43 44 42 37 34 35 35 35 36 36 36 34 32 31 32 32 30
22 21 22 25 28 30 29 30 30 29 32 43 48 44 48 46 47 42 39 39 33 33 34 35 35 37 35 34 31 32 33 32
15 18 19 20 22 25 27 27 29 29 31 36 46 48 48 53 43 42 43 40 35 33 34 35 36 35 34 35 34 33 31 32
14 15 19 19 19 20 23 28 28 30 34 37 42 50 48 45 45 49 45 43 39 35 34 35 32 35 38 37 36 34 33 33
17 13 12 11 11 12 16 24 26 33 35 37 40 46 47 49 47 46 45 45 41 35 36 36 31 37 39 37 35 34 35 34
25 22 15 13 13 11 3 13 20 25 32 35 40 41 44 45 48 44 45 46 41 39 38 36 36 34 39 38 37 37 36 35
29 25 23 18 17 14 10 2 9 17 20 26 31 34 38 42 41 40 39 42 43 38 33 37 36 31 37 36 36 35 36 37
32 26 26 22 20 18 16 9 2 10 18 21 24 27 32 34 33 33 33 32 29 27 33 35 34 33 34 35 36 36 37 37
35 29 29 24 21 20 17 13 7 3 12 17 19 25 25 22 24 24 21 19 19 21 21 24 31 31 32 32 33 34 33 33
34 33 33 27 23 21 20 18 9 2 9 13 18 20 18 20 20 18 19 18 17 18 17 21 26 28 27 26 27 29 30 32
32 33 33 33 29 27 24 21 19 12 6 10 14 13 15 17 18 17 16 17 20 19 19 21 21 22 21 22 24 27 30 33
37 38 41 40 35 31 29 25 23 17 13 9 13 14 10 13 15 14 16 17 19 17 18 19 21 22 22 24 26 28 30 31
35 40 41 40 37 34 30 28 26 21 16 12 8 8 7 7 10 11 12 13 11 13 16 20 22 21 22 24 25 26 29 33
36 38 43 41 39 36 32 31 29 25 19 15 14 12 16 15 14 12 10 6 6 9 9 13 16 16 15 16 12 11 17 24
35 39 41 41 38 36 34 33 31 27 26 22 18 12 16 16 13 16 11 9 9 8 9 10 12 13 10 11 11 12 14 17
33 34 35 37 37 37 36 35 31 30 29 27 24 17 17 16 17 15 13 12 12 13 12 13 13 13 13 14 13 16 17 19
31 31 34 37 38 39 38 37 37 36 35 30 28 23 20 19 13 11 11 7 7 6 4 5 8 12 15 16 17 18 18 19

GFSFLT1_850_spd_111.txt.gz
Wind_Speed
33 29 27 27 27 26 26 29 32 32 37 37 39 42 42 41 37 37 38 39 40 37 36 35 36 35 34 33 33 30 31 30
30 31 31 35 32 29 27 27 29 32 36 41 42 44 44 45 44 38 39 38 38 39 38 37 38 37 36 35 32 31 33 29
24 28 30 30 28 28 29 30 30 31 35 38 40 43 46 46 49 46 42 40 37 39 42 41 40 38 38 35 33 34 34 32
23 24 24 25 25 25 28 31 32 33 32 32 34 37 41 43 49 52 47 44 41 39 42 41 39 40 39 38 35 34 35 36
24 26 27 26 28 31 29 32 34 33 33 34 35 40 41 45 49 50 50 49 45 42 41 39 41 39 39 38 36 35 33 36
26 26 26 27 28 29 35 35 33 34 34 35 37 42 44 45 46 46 52 54 47 44 40 41 42 39 37 37 37 37 34 34
26 26 26 24 23 23 28 31 33 31 35 37 40 42 43 40 45 47 49 53 50 46 45 41 40 37 35 35 36 34 35 35
30 31 30 26 23 20 19 18 23 26 31 36 39 40 42 41 42 44 43 48 49 46 44 43 42 37 34 32 32 35 36 35
31 30 28 27 24 21 17 15 13 14 22 28 29 35 36 39 37 36 41 42 42 46 43 43 38 35 35 35 30 31 35 33
31 31 28 26 23 20 19 14 10 6 13 19 24 29 33 36 35 34 33 34 36 38 42 39 37 36 37 33 27 29 32 32
34 33 31 25 23 20 17 12 11 8 4 16 22 22 28 31 31 29 30 29 29 32 37 36 35 36 33 30 25 28 29 30
33 34 32 29 25 23 21 18 14 9 2 10 18 21 22 24 26 25 25 25 22 25 27 28 30 29 27 28 27 27 28 29
31 34 35 33 31 31 28 24 21 17 10 10 13 16 15 17 19 19 19 20 20 24 23 22 18 18 20 23 25 26 25 26
30 34 36 36 35 36 34 31 27 21 18 12 11 13 12 10 12 14 15 18 19 21 21 19 17 16 17 17 19 22 21 24
36 39 38 39 41 40 37 37 31 24 24 19 19 14 14 13 10 11 12 12 15 16 15 14 15 15 16 18 21 23 26 28
38 40 42 45 44 41 39 38 37 34 32 23 23 18 18 18 17 20 22 22 19 16 14 12 11 13 17 19 21 22 21 20
30 35 40 43 44 43 40 40 39 37 36 34 29 23 18 23 23 23 19 17 16 14 10 8 10 16 16 15 13 14 14 15
30 33 37 40 42 41 42 41 39 39 40 39 32 32 26 23 22 21 21 17 12 10 13 12 13 14 15 14 14 15 16 19
28 32 35 38 41 43 42 42 43 43 43 41 37 34 33 27 24 25 22 16 14 14 10 7 7 10 14 14 16 16 16 17

GFSFLT1_850_spd_114.txt.gz
Wind_Speed
17 20 17 17 19 21 25 24 24 25 26 25 25 27 29 30 29 32 36 38 39 38 29 32 37 39 37 37 32 29 26 27
13 13 15 18 18 21 22 26 23 21 21 27 28 32 32 33 34 37 38 40 37 38 36 36 37 39 41 39 38 34 31 28
16 17 17 17 19 20 20 21 22 20 18 22 29 30 31 35 36 38 39 38 38 38 39 39 41 41 42 41 42 40 36 35
23 23 22 22 21 21 22 23 22 23 23 21 25 29 31 32 36 40 40 43 44 42 42 42 42 42 42 43 42 42 41 39
24 26 25 23 24 24 25 27 28 26 25 23 25 32 36 38 33 39 47 50 49 49 46 44 40 41 42 43 43 43 41 41
25 26 26 26 24 25 26 28 31 30 26 25 26 31 37 34 33 32 39 50 55 55 50 47 42 40 41 43 43 43 42 42
25 25 25 24 24 25 27 29 32 32 35 32 29 32 36 37 35 34 35 45 54 55 54 50 45 42 42 42 42 41 42 42
27 27 28 26 26 27 27 27 30 29 32 34 36 32 37 40 37 36 32 39 44 52 54 52 48 45 41 39 38 41 40 40
26 27 28 27 26 26 27 27 28 26 26 28 33 40 33 41 38 34 34 37 40 43 52 53 49 44 38 36 35 37 38 36
28 28 27 27 28 26 25 25 24 21 21 22 26 35 28 38 36 34 33 35 36 38 46 48 48 45 41 35 39 38 34 31
29 28 28 27 27 23 20 18 17 17 16 15 22 27 29 31 32 36 32 31 30 33 36 39 43 42 40 39 40 37 33 32
31 31 31 30 28 24 21 16 18 13 10 8 9 22 27 23 29 31 28 27 27 30 28 31 37 41 41 41 38 33 33 30
30 32 34 35 32 31 26 22 21 17 12 6 7 17 20 19 21 24 26 26 27 28 28 27 33 35 36 34 30 28 31 28
26 34 37 38 35 32 30 31 28 24 20 16 14 17 16 15 15 15 19 22 21 22 24 25 27 24 25 27 27 27 26 25
25 28 34 37 36 35 35 38 35 33 29 29 22 16 14 15 16 17 19 20 20 22 22 21 21 21 23 22 22 22 24 23
28 31 38 40 38 39 39 39 41 39 38 35 35 22 18 19 20 19 18 19 21 22 22 22 24 24 24 23 19 18 18 20
28 30 33 39 42 44 43 42 42 43 44 38 38 38 28 26 26 27 27 26 25 24 23 21 19 18 18 18 16 17 19 21
25 27 30 34 37 40 44 43 41 42 46 41 40 40 37 37 31 31 31 27 23 20 16 11 6 5 10 13 14 15 16 18
24 25 28 32 33 37 35 41 45 44 45 44 42 40 40 38 35 33 34 31 29 23 19 15 7 3 7 12 13 13 14 16

GFSFLT1_850_spd_117.txt.gz
Wind_Speed
11 13 14 14 15 16 16 15 14 14 18 24 24 25 27 31 32 34 32 33 37 40 32 32 35 36 34 29 32 29 26 24
13 16 17 18 17 18 17 16 15 15 14 17 23 29 30 31 34 34 35 35 35 35 33 32 35 38 43 38 31 32 31 26
16 17 18 18 19 20 20 19 17 15 15 16 20 27 32 35 35 37 39 36 37 38 37 37 37 37 39 42 40 35 34 31
19 20 21 21 21 21 22 22 20 19 17 19 21 25 32 30 40 41 39 41 40 42 41 42 42 41 37 41 42 43 39 37
20 23 24 24 24 22 21 23 22 20 19 19 21 24 28 33 36 36 41 41 45 45 44 42 43 45 40 38 41 45 42 41
23 24 26 27 25 25 25 24 23 21 21 21 22 24 27 30 30 39 39 41 43 47 48 46 45 44 43 39 40 44 47 44
24 25 27 28 27 27 26 26 24 22 21 23 25 26 28 29 31 30 40 41 45 48 49 47 48 45 41 40 40 40 44 44
27 29 30 30 30 30 28 26 27 25 25 26 28 30 30 30 33 40 31 39 40 47 49 49 51 48 45 42 40 39 41 42
26 28 28 28 28 29 30 29 28 27 28 31 31 34 35 34 35 40 38 37 41 42 44 48 49 49 52 47 41 39 39 40
25 26 26 28 28 29 28 30 28 27 29 31 31 32 36 39 35 33 45 36 38 38 40 40 47 46 47 49 45 40 39 38
25 27 28 28 29 29 26 22 24 24 23 24 26 28 32 36 31 33 40 41 35 37 35 35 40 45 45 47 43 41 40 38
28 31 28 29 28 29 27 23 20 19 17 15 16 21 25 30 30 33 38 40 37 32 33 32 36 42 45 43 43 42 40 39
27 31 32 36 36 32 31 29 23 22 14 12 14 8 4 15 21 27 32 32 30 29 29 28 27 34 38 39 40 39 40 38
27 30 35 37 38 37 36 34 33 29 17 18 13 10 12 11 14 15 23 22 25 24 25 24 25 26 27 30 34 36 34 31
26 29 33 34 38 41 39 36 37 36 32 33 30 23 17 11 10 13 12 16 22 22 21 25 27 24 29 31 33 34 31 27
26 27 30 32 37 40 39 38 40 41 42 43 46 35 26 20 20 20 20 20 21 22 22 23 24 23 26 28 28 25 27 23
25 27 28 32 35 37 36 39 42 43 45 45 46 46 42 37 30 26 26 27 25 22 21 18 18 18 20 21 23 21 20 21
24 26 28 30 33 33 34 39 41 44 46 47 46 46 45 46 40 37 37 33 30 29 26 22 19 15 13 12 9 12 15 18
20 22 24 26 28 29 29 32 41 45 46 47 47 46 45 45 45 45 44 43 40 39 36 34 24 21 13 11 8 5 4 4